Location: Krasnoyarskiy Pitomnik
(51.1333°N, 71.6167°E)
Time: 05:40:08
(UTC+00:00)

Transit 4A - Pass Details

Date: 21 April 2024
Orbit: 871 x 971 km, 66.8° (Epoch: 28 May)

Event Time Altitude Azimuth Distance (km) Brightness Sun altitude
Rises 17:14:36 0° 317° (NW) 3,470 12.3 -21.7°
Reaches altitude 10° 17:17:21 10° 307° (NW) 2,529 11.1 -21.9°
Maximum altitude 17:22:19 30° 248° (WSW) 1,526 9.1 -22.3°
Enters shadow 17:24:33 23° 212° (SSW) 1,776 9.1 -22.5°
